GFSFLT2_925_thetae_087.txt.gz
Theta_e
346 344 341 337 337 336 336 337 339 345 339 341 339 339 338 337 336 335 334 333 332 333 333 337 337 336 334 335 334 334 335 335
347 346 344 343 342 338 337 338 338 339 337 338 337 337 337 336 335 333 332 332 332 332 330 332 333 333 332 334 334 333 334 334
346 345 345 344 343 342 338 337 337 338 337 334 336 337 336 335 334 333 332 332 330 328 328 329 330 332 333 333 332 333 333 332
346 345 344 344 342 343 342 341 340 339 338 338 336 336 337 335 334 333 329 330 327 326 328 325 330 332 332 331 332 332 331 330
345 345 344 345 343 343 341 342 342 341 339 339 337 336 336 336 334 331 330 329 326 326 328 329 330 333 332 332 331 330 329 329
343 344 344 343 341 340 340 343 343 341 340 339 337 336 336 334 334 333 330 327 327 327 330 329 331 332 332 331 330 329 328 328
343 342 342 342 341 340 340 341 340 338 339 338 337 335 335 334 332 331 331 330 328 326 326 329 332 331 331 330 328 327 325 326
342 342 341 341 341 339 337 338 337 337 336 337 337 335 334 334 333 331 330 332 328 325 327 330 331 331 330 329 326 325 324 323
340 342 341 341 339 340 337 338 335 335 334 336 335 335 334 332 331 331 332 331 329 327 326 329 330 329 328 327 325 324 323 322
337 341 340 340 339 339 338 335 334 335 335 335 334 333 332 332 332 332 331 330 329 328 327 327 328 329 327 325 324 323 322 321
335 341 339 339 339 338 336 334 333 334 335 333 332 332 332 332 332 331 330 329 328 328 329 326 327 327 326 325 323 321 321 320
335 341 339 339 339 336 334 332 332 332 332 331 332 330 330 329 329 328 329 328 329 328 326 325 326 326 325 323 322 322 321 320
336 340 338 339 337 333 332 331 331 331 329 329 330 330 329 328 328 327 328 328 328 328 327 325 326 325 325 323 323 322 323 322
336 339 338 338 334 333 332 331 330 331 331 329 328 329 328 328 328 329 328 327 327 327 326 325 324 325 324 323 324 322 323 322
336 338 338 337 334 333 331 330 329 329 329 328 331 330 329 327 327 327 327 327 326 326 326 325 325 324 324 324 324 324 323 323
335 337 337 336 334 333 331 330 329 328 328 329 330 329 329 328 327 327 326 325 325 325 325 325 324 325 324 323 321 321 325 326
335 336 335 336 334 332 331 329 328 327 328 328 328 327 325 325 325 326 325 325 325 325 324 325 324 325 324 324 323 322 323 324
336 335 335 333 333 332 331 329 327 327 328 328 327 325 323 322 323 325 325 324 323 324 323 321 324 324 324 324 324 324 324 323
336 334 335 332 333 332 330 328 327 326 328 327 325 323 322 321 322 323 323 323 322 323 323 323 324 324 324 324 324 324 323 323
334 331 331 330 332 332 330 327 326 326 328 326 326 324 321 321 320 320 321 322 322 322 323 324 324 324 324 324 324 323 323 323

GFSFLT2_925_thetae_093.txt.gz
Theta_e
340 333 334 334 335 335 336 338 338 345 344 344 344 341 339 338 338 337 336 336 334 333 333 332 329 333 332 334 334 335 334 335
341 334 333 334 336 336 335 337 335 344 343 344 343 342 341 338 338 337 336 335 333 331 331 330 327 331 332 332 332 334 333 334
345 335 334 334 336 336 336 336 336 337 342 343 343 341 341 339 337 336 335 334 333 328 329 329 325 331 332 331 332 333 334 334
346 344 338 336 337 336 336 336 336 337 338 339 341 340 340 338 337 336 335 334 333 329 330 330 329 332 331 329 332 332 333 333
347 346 346 342 343 341 336 336 336 336 336 336 336 339 337 338 337 335 334 332 331 331 329 328 329 330 331 329 331 331 331 330
347 346 346 345 341 340 337 337 337 335 335 336 335 338 337 337 336 334 333 332 331 329 328 327 326 328 331 329 330 331 331 331
346 345 343 343 343 342 339 340 339 338 338 339 338 337 336 336 335 334 332 332 331 329 328 327 326 327 329 329 330 330 330 330
346 345 346 340 341 342 342 342 340 341 341 340 339 337 336 336 335 333 332 331 329 328 328 327 326 327 326 328 330 330 329 329
346 346 345 342 341 343 342 342 342 341 341 339 338 337 336 335 334 332 333 331 331 329 328 327 326 326 327 327 328 329 329 327
344 346 345 343 341 343 340 340 339 338 339 339 337 337 336 335 334 332 332 332 331 329 327 328 326 326 326 327 328 328 329 327
339 345 345 343 343 342 341 338 337 336 336 336 336 335 335 335 333 332 332 332 330 329 327 327 327 325 326 327 327 326 327 324
331 344 344 341 342 341 340 337 335 336 335 334 334 333 334 333 332 332 332 331 330 330 328 327 325 327 327 328 327 324 325 323
331 342 342 341 340 340 337 335 335 334 334 332 332 332 333 333 332 331 331 330 330 329 327 326 326 326 326 326 324 321 323 323
335 342 342 341 340 339 337 336 334 332 333 331 331 332 333 332 331 331 330 329 329 329 328 327 326 326 325 323 322 321 321 322
340 342 341 340 340 337 336 334 332 331 330 329 329 329 331 331 331 331 330 329 329 328 328 327 326 326 325 322 322 322 321 321
340 341 340 339 340 337 336 332 331 330 329 328 328 328 329 330 330 329 329 329 328 328 328 326 325 325 325 323 322 322 321 321
341 340 339 339 338 336 335 332 331 331 329 329 327 328 329 329 330 329 329 328 327 328 327 325 324 324 324 324 323 321 321 320
340 339 339 338 336 336 333 332 330 330 330 329 329 329 329 329 329 328 327 326 326 328 327 326 324 324 324 323 322 321 321 320
339 338 338 337 336 336 333 333 331 329 328 329 330 330 328 327 326 327 328 327 326 326 327 326 324 324 324 323 322 322 321 321
335 337 337 335 335 335 334 332 330 329 329 328 328 326 325 324 323 324 325 325 326 326 326 326 325 324 324 323 323 321 322 322

GFSFLT2_925_thetae_096.txt.gz
Theta_e
330 331 332 335 335 336 337 337 338 339 341 341 341 340 339 338 338 337 337 336 334 335 335 334 333 333 334 334 335 336 335 334
331 330 333 334 335 335 336 337 337 342 343 343 342 341 339 338 338 337 336 336 334 333 332 331 330 331 333 333 334 335 334 334
338 330 332 334 335 335 336 337 336 342 343 343 342 341 340 339 339 337 336 335 334 333 332 330 328 333 331 331 332 334 333 334
339 331 330 334 335 335 337 338 337 341 342 343 342 341 340 339 338 337 336 334 333 331 330 329 328 333 332 332 331 333 332 332
343 339 330 331 335 335 337 338 337 338 338 340 341 340 340 340 338 337 336 333 333 330 329 329 329 333 332 332 332 332 333 333
344 343 339 331 331 335 336 337 336 337 338 338 339 340 339 339 338 336 335 334 333 330 329 330 330 330 330 329 331 331 332 332
345 345 343 339 336 336 337 336 336 335 336 336 335 338 338 337 337 336 335 334 332 331 331 329 328 326 328 328 330 331 330 330
345 345 345 343 341 339 337 336 335 335 335 335 335 334 336 336 336 336 335 333 331 331 330 327 327 326 326 329 328 329 330 330
346 345 346 344 342 339 340 337 338 338 337 337 337 336 336 335 335 335 334 333 332 331 329 328 327 327 326 326 328 328 329 330
342 344 344 344 343 341 341 339 341 339 340 339 339 338 337 336 336 335 333 332 331 331 329 329 327 326 326 327 326 328 328 329
332 342 344 343 342 339 341 341 342 341 340 340 339 338 337 336 335 335 334 332 331 330 329 329 328 327 327 326 326 328 327 328
325 335 342 343 341 340 341 341 341 340 339 339 339 337 336 336 335 334 332 331 330 330 330 328 328 326 326 326 326 327 326 326
330 338 342 342 339 338 338 338 338 337 336 334 336 336 334 334 334 333 332 332 330 330 329 327 327 327 327 327 326 326 325 325
324 337 341 341 340 339 337 336 336 335 334 335 333 334 332 333 332 332 332 331 330 329 328 326 326 326 326 323 323 320 322 323
324 336 340 340 340 339 337 334 334 335 335 333 332 331 330 331 331 332 331 331 331 330 328 327 326 326 326 323 323 323 320 321
322 336 339 340 339 337 335 334 333 332 332 332 330 329 330 331 332 331 330 330 329 329 328 327 326 326 325 324 322 321 322 322
329 338 340 339 338 337 335 334 332 331 331 331 329 328 328 328 330 331 330 330 329 328 328 326 326 326 325 323 322 321 320 320
337 339 340 338 336 335 336 332 330 329 329 329 328 327 326 327 328 329 329 328 328 328 327 326 325 325 325 323 322 321 320 320
328 339 338 337 336 334 333 332 330 330 329 327 327 326 326 326 328 328 328 328 328 327 327 327 326 325 325 324 323 321 321 320
325 337 337 335 334 333 332 331 331 330 329 328 328 327 327 327 328 328 328 327 326 327 326 327 326 325 324 324 323 321 320 320

GFSFLT2_925_thetae_102.txt.gz
Theta_e
342 341 340 339 339 340 340 340 339 338 337 336 336 336 337 338 339 339 339 338 338 337 336 335 334 335 336 335 336 335 335 335
342 341 340 340 339 339 339 340 340 340 339 337 337 337 337 337 338 338 338 337 336 336 336 334 335 336 336 336 336 336 335 336
340 341 341 340 339 339 339 338 338 339 339 339 338 337 338 337 337 337 337 337 336 335 336 335 334 336 336 336 336 336 336 335
339 338 337 337 338 338 338 338 338 338 339 340 340 339 338 338 338 337 337 336 336 335 334 335 335 335 336 336 335 335 335 334
334 332 332 333 336 336 337 339 337 337 338 339 340 340 340 339 338 338 337 336 336 334 334 334 334 334 335 335 334 333 334 334
334 335 332 334 335 336 338 342 337 338 337 337 338 341 341 340 338 338 337 336 335 335 335 334 334 334 333 331 333 331 331 333
340 336 335 335 335 335 336 340 341 339 336 338 338 340 341 340 339 338 338 336 335 334 333 333 332 331 331 330 332 331 330 331
341 341 339 336 335 334 335 336 336 339 342 337 338 340 341 340 340 338 338 337 335 334 333 332 331 329 329 331 329 330 328 328
327 340 341 339 335 333 332 332 334 336 337 339 336 338 340 339 339 338 338 337 336 333 332 331 329 330 330 330 329 328 327 326
314 323 339 341 337 333 332 331 331 334 335 338 335 336 339 339 338 338 337 337 335 333 332 331 330 331 329 329 328 326 326 325
311 316 335 339 340 337 334 333 332 332 333 331 334 336 337 338 338 336 335 335 334 332 330 330 329 329 328 326 326 327 327 325
310 310 324 337 340 338 336 335 334 333 332 332 333 335 336 335 336 335 334 332 331 331 330 330 329 327 327 327 326 327 327 327
309 309 315 337 339 338 337 337 336 335 334 332 332 334 335 335 335 335 334 331 331 331 329 329 328 328 327 327 327 326 326 327
310 308 314 334 338 339 338 338 337 336 335 335 332 334 334 335 335 335 334 333 332 331 329 328 328 328 327 325 324 323 326 326
313 317 318 331 337 339 337 338 336 336 335 336 336 336 336 336 337 334 334 332 331 329 329 328 328 327 327 325 323 325 321 322
313 315 319 329 336 338 336 336 335 335 335 335 336 337 337 338 338 336 335 331 331 330 328 328 327 327 326 326 323 322 322 322
309 312 315 322 336 336 336 335 334 334 334 334 334 334 336 338 337 336 332 329 330 329 327 327 327 327 327 325 322 321 321 319
306 308 311 322 336 337 335 334 334 333 333 332 332 333 336 336 335 333 329 329 329 328 327 326 327 326 325 325 325 322 320 320
303 305 308 319 332 336 336 334 334 333 332 332 331 331 330 333 332 329 328 329 328 328 327 326 325 324 324 325 324 324 322 322
301 303 306 314 331 335 336 334 333 331 331 330 330 330 330 330 331 328 328 328 328 328 328 325 323 323 323 324 325 324 323 322

GFSFLT2_925_thetae_105.txt.gz
Theta_e
341 342 342 341 340 339 338 337 335 335 335 335 335 336 337 338 338 340 341 339 338 338 336 335 336 336 335 335 336 336 340 340
342 342 342 342 341 340 340 339 338 336 335 335 336 336 337 338 338 340 341 338 338 338 336 336 335 334 335 336 336 336 339 339
342 342 344 342 342 341 340 340 339 338 337 336 336 339 338 339 340 340 339 338 338 337 336 336 335 335 336 336 336 338 338 338
344 345 343 345 341 341 341 341 340 340 340 339 339 338 340 341 340 338 338 338 337 336 336 336 335 338 337 337 337 336 337 335
339 342 344 343 342 341 340 340 340 340 340 340 341 339 338 339 341 339 339 338 338 335 335 337 338 337 337 337 336 336 336 336
335 337 339 340 342 338 338 341 343 341 339 339 341 339 339 340 341 339 339 339 338 336 334 336 337 336 336 335 333 334 334 334
335 332 333 337 341 336 337 336 337 340 339 338 339 340 340 339 339 338 338 337 337 336 335 335 335 335 335 335 334 333 331 329
337 334 331 334 333 335 336 336 337 336 338 339 338 339 341 341 340 338 338 338 337 336 335 335 335 333 333 333 334 332 330 330
325 320 325 336 333 332 334 336 336 337 337 337 335 335 338 340 341 338 338 338 337 336 334 333 333 332 331 330 332 331 328 327
309 323 330 338 338 336 333 334 336 335 335 336 338 338 338 339 340 340 337 337 337 335 334 332 331 331 331 330 331 329 328 326
307 308 325 331 336 338 336 334 334 333 333 335 338 339 338 339 341 340 338 337 336 336 334 332 331 330 331 330 331 329 327 326
311 307 308 323 333 336 336 335 334 332 331 332 334 339 340 340 339 336 335 334 334 334 333 333 331 330 329 328 329 328 326 327
317 316 308 313 332 336 335 335 334 333 333 334 336 336 338 337 337 336 336 334 331 332 332 331 329 329 329 328 327 327 327 326
313 316 317 315 324 333 334 334 334 335 334 334 333 333 333 335 335 334 334 333 330 330 330 329 329 328 327 326 326 326 327 326
310 312 314 317 320 331 335 335 335 335 334 334 334 333 332 333 334 333 333 332 330 332 330 330 328 328 328 326 325 328 324 326
307 308 311 314 319 328 334 334 334 334 335 335 335 335 333 333 333 333 332 333 332 331 331 330 328 328 327 327 325 324 327 327
304 305 308 312 315 321 334 335 334 335 337 336 335 334 333 332 333 333 333 333 332 331 329 329 329 328 327 326 324 322 321 324
301 302 304 308 312 317 329 334 334 335 335 336 334 332 332 333 333 333 333 334 332 330 329 329 328 327 327 327 326 323 322 323
298 299 301 305 309 315 324 334 333 334 334 335 333 332 333 332 333 332 334 334 332 329 328 328 327 327 327 326 326 325 324 323
296 297 299 303 306 311 325 332 333 333 334 334 332 331 331 331 332 332 333 332 329 328 328 327 327 326 326 325 325 324 324 323

GFSFLT2_925_thetae_108.txt.gz
Theta_e
349 348 343 339 337 336 335 335 335 336 337 338 340 341 343 342 341 340 340 340 338 338 339 337 338 338 337 337 336 337 339 338
349 350 348 347 343 338 337 336 335 335 335 337 339 341 341 340 340 339 339 339 338 339 339 337 336 337 337 336 336 337 339 337
348 346 345 347 347 345 339 338 336 336 336 336 337 341 342 342 341 341 339 340 338 338 338 337 336 336 336 336 336 337 337 337
344 345 346 343 345 347 345 345 343 342 342 342 341 342 343 343 342 342 340 339 338 337 337 337 336 338 338 337 337 336 336 337
343 343 344 345 343 345 346 345 345 344 344 344 343 343 344 343 343 343 342 341 340 338 339 339 338 338 338 337 337 338 337 337
343 343 343 342 342 343 343 343 344 344 345 345 343 343 343 342 341 342 342 342 340 341 339 339 338 339 338 339 338 336 336 336
341 341 341 340 339 341 341 341 340 342 342 342 344 344 343 342 340 340 341 341 341 341 340 340 339 338 338 338 337 337 336 337
326 339 340 340 339 339 339 339 339 340 340 340 343 342 343 342 341 342 340 340 341 340 340 339 338 338 337 337 337 337 335 335
315 325 340 340 339 338 338 337 338 338 339 340 341 341 341 340 340 340 341 339 341 340 340 339 338 337 337 336 336 335 334 334
314 314 318 330 338 339 339 338 338 337 337 338 340 340 340 340 340 339 339 340 341 340 339 338 338 337 336 335 335 335 334 334
321 317 315 321 331 336 338 340 340 338 338 337 337 338 337 337 338 338 338 337 340 339 338 338 337 336 335 335 333 334 333 332
322 322 321 315 322 332 334 337 338 340 339 338 337 336 336 336 337 337 336 336 337 337 336 336 336 335 334 333 333 333 332 332
319 321 322 322 315 324 331 336 336 335 338 338 337 337 336 336 337 337 335 335 335 335 335 335 333 333 331 330 330 331 331 331
316 317 318 320 321 318 327 331 333 333 335 337 337 336 335 336 336 336 335 335 334 335 334 332 332 332 330 329 330 329 330 330
313 314 314 316 319 321 322 329 332 333 334 335 335 336 334 334 335 336 335 336 334 333 333 332 331 330 331 329 328 330 327 328
310 311 311 312 315 319 323 326 332 332 333 333 334 335 336 335 335 336 336 335 334 333 332 334 332 330 330 330 327 327 330 331
308 308 308 310 310 313 317 323 329 332 332 333 334 334 334 336 335 335 335 334 333 333 332 334 333 332 330 328 329 325 324 328
305 304 305 306 307 309 312 317 324 332 332 334 334 335 334 335 334 335 334 333 333 332 334 334 332 332 332 331 329 327 326 325
301 300 300 302 302 305 309 312 320 327 334 335 335 336 334 334 334 334 333 333 334 335 334 333 332 331 331 331 330 330 328 327
298 296 297 298 299 302 305 308 313 326 332 333 335 335 334 333 333 334 334 334 334 334 334 333 332 331 331 330 328 328 326 326

GFSFLT2_925_thetae_114.txt.gz
Theta_e
352 347 341 339 339 339 340 341 343 344 344 344 343 343 341 339 337 338 339 340 341 340 339 339 339 339 338 338 337 336 337 339
354 350 343 339 338 338 338 338 339 340 341 343 343 343 342 340 338 339 339 340 339 340 339 338 339 338 338 338 337 336 335 334
352 352 348 344 340 337 337 337 337 337 338 339 341 342 341 340 339 340 340 340 340 340 339 339 340 337 337 337 337 336 335 334
351 352 349 348 347 344 337 336 337 337 338 339 341 343 346 344 343 343 343 341 339 339 339 340 340 338 337 336 336 336 337 337
350 349 348 348 349 348 342 342 339 339 340 342 339 344 346 344 345 343 341 341 339 339 340 340 339 338 340 340 336 335 337 338
349 348 346 345 347 350 348 346 344 344 342 342 344 342 342 345 340 344 342 341 340 342 341 339 338 340 338 339 338 338 338 337
345 347 347 345 346 347 348 347 347 346 345 344 344 344 345 343 342 343 344 342 342 340 342 341 338 338 339 339 338 338 337 337
332 339 344 347 345 346 346 346 346 343 345 346 344 345 341 344 342 343 344 344 341 341 339 338 339 338 337 337 337 338 337 337
318 318 320 335 342 342 344 345 344 346 344 343 345 344 343 343 343 340 340 344 341 338 341 340 338 340 339 337 337 337 337 337
324 323 321 319 321 340 343 342 342 341 344 344 340 344 341 344 342 342 342 339 342 339 338 339 339 340 339 339 338 337 335 335
323 324 325 326 324 320 325 337 341 340 340 342 342 340 346 342 344 340 340 342 341 342 339 339 340 339 339 338 337 335 335 335
323 323 323 324 324 324 321 322 334 341 341 340 341 341 340 343 343 344 340 341 342 341 341 341 340 338 339 338 336 335 334 335
320 320 321 321 322 323 325 325 322 334 339 341 341 342 343 342 343 344 342 340 339 340 341 340 340 339 338 336 335 335 334 334
316 316 316 317 318 319 320 321 324 325 324 330 338 341 342 342 343 343 343 340 338 339 341 340 339 338 338 335 334 334 334 333
314 314 314 314 314 315 317 319 321 325 325 324 334 338 341 341 342 342 342 340 338 337 340 339 337 336 337 332 331 331 330 332
312 312 311 311 310 311 313 315 317 319 321 323 326 331 332 339 338 341 341 340 338 336 337 338 336 335 336 334 331 331 329 331
309 309 309 308 307 308 308 310 311 312 313 316 319 324 328 334 338 340 340 340 339 336 335 337 335 334 334 334 333 332 332 330
307 306 306 305 304 304 304 306 306 307 309 312 315 319 325 333 337 337 339 338 338 337 336 336 335 335 333 333 333 332 331 329
305 304 302 301 301 301 301 301 302 303 305 308 311 314 319 327 334 334 337 337 336 337 338 336 335 334 334 332 332 332 331 329
302 300 299 298 298 297 297 298 299 300 301 303 307 311 316 320 331 333 335 335 334 334 335 337 336 335 334 333 332 330 331 329

GFSFLT2_925_thetae_117.txt.gz
Theta_e
349 347 344 341 338 339 340 341 342 342 342 342 339 338 339 339 336 337 337 340 341 341 339 339 338 337 338 338 337 336 337 339
351 349 344 340 338 339 341 342 342 342 343 343 343 341 341 340 338 337 338 340 340 340 339 339 338 337 337 337 337 336 336 336
353 352 348 340 338 339 340 341 341 342 343 343 343 343 342 341 339 337 338 339 339 339 340 339 338 338 337 336 336 336 335 335
351 352 350 342 339 338 338 339 339 339 339 341 342 341 341 341 339 338 339 339 339 340 340 338 338 338 337 335 334 335 335 337
351 352 350 346 342 339 337 337 337 338 337 338 339 340 340 341 339 339 340 341 340 340 340 338 337 337 336 337 339 336 334 337
351 351 350 347 346 347 345 336 336 336 337 337 339 340 344 345 343 342 342 341 340 339 338 338 338 336 336 338 340 338 336 337
346 348 348 347 347 349 348 343 339 337 337 339 339 340 342 346 345 345 343 342 341 340 338 339 339 337 336 339 339 338 338 338
330 344 346 345 344 345 346 347 345 344 342 341 341 342 342 342 343 344 341 342 342 340 340 340 340 338 337 337 339 338 338 337
324 324 323 321 337 340 341 341 342 343 344 346 343 342 344 343 343 343 342 342 342 341 340 340 341 338 338 337 336 337 337 337
323 324 324 325 324 324 330 336 339 340 340 343 346 345 343 345 342 344 341 343 343 343 341 340 340 337 338 339 338 337 337 336
322 322 322 323 323 323 324 324 328 337 340 342 343 344 345 343 343 343 342 342 342 343 341 340 340 337 339 339 337 337 336 336
319 319 319 320 320 321 322 324 324 322 327 338 339 340 341 341 344 342 343 342 342 342 341 340 339 338 339 339 338 337 336 335
315 315 315 315 315 316 316 317 320 322 323 326 335 338 340 341 342 342 342 341 340 342 342 340 340 338 339 338 338 336 335 334
313 312 312 312 312 312 313 314 317 318 321 324 325 326 328 338 340 341 340 341 339 339 341 340 340 340 337 335 333 333 335 335
310 310 310 309 308 308 309 311 313 314 316 317 320 322 324 329 337 337 339 339 339 337 338 340 339 339 338 333 329 328 327 334
308 307 306 305 305 304 304 306 308 308 309 310 313 316 318 321 324 334 337 337 336 335 335 336 338 337 336 335 330 329 325 327
305 304 303 302 301 301 301 302 303 304 305 306 308 311 313 314 317 323 333 336 336 335 334 336 336 336 335 335 332 329 329 325
303 301 300 299 298 298 298 298 299 300 301 302 303 306 309 311 313 316 322 335 335 336 335 335 336 336 334 333 333 332 330 327
299 297 296 296 295 296 295 296 296 297 298 300 301 302 304 308 310 313 318 327 334 335 334 335 335 335 333 333 332 332 331 330
296 295 294 293 292 292 293 293 294 295 296 297 299 300 302 303 305 309 313 319 330 333 333 332 335 335 334 333 332 331 331 330

GFSFLT2_925_thetae_123.txt.gz
Theta_e
346 342 341 340 340 339 338 337 338 339 339 336 335 334 335 334 334 335 337 342 342 340 336 336 336 337 337 337 337 337 337 338
348 346 342 340 340 339 338 338 339 340 341 340 337 335 336 336 335 334 336 339 341 340 338 337 336 336 337 337 336 336 335 334
348 346 343 341 340 339 338 338 339 341 342 341 339 336 336 337 337 335 336 337 339 341 339 337 336 335 336 336 336 336 335 333
348 347 346 344 341 340 340 340 341 341 342 341 341 338 336 338 338 337 336 337 338 340 340 338 337 336 336 336 335 335 336 335
348 348 347 346 344 341 340 341 342 342 342 342 342 342 340 339 340 340 338 338 339 341 341 339 338 337 336 336 335 334 334 334
317 338 349 348 345 342 340 340 341 342 343 343 343 344 343 342 341 341 341 339 339 341 341 339 338 337 336 336 335 334 333 333
326 336 349 348 346 343 340 339 339 339 340 341 342 344 345 342 342 341 341 341 339 340 340 340 339 338 337 336 335 335 337 335
342 344 347 347 345 344 342 339 338 339 339 340 341 340 338 339 339 340 340 340 340 339 339 339 339 338 337 336 336 335 337 337
326 327 331 337 338 337 339 339 340 340 339 339 339 338 339 339 339 338 338 340 340 339 340 340 340 339 338 337 336 335 337 337
321 321 322 323 323 323 322 324 326 326 329 331 332 335 339 340 340 339 339 338 340 341 341 341 340 340 338 337 337 336 337 337
315 316 317 317 318 318 318 318 318 319 319 321 324 329 331 334 335 328 336 337 337 339 341 341 339 339 339 338 338 337 337 338
311 311 312 313 313 314 314 314 312 313 315 317 316 321 328 331 329 328 326 327 334 336 338 339 339 338 337 337 338 338 337 338
307 307 306 308 309 309 309 309 309 309 310 310 310 312 315 316 325 327 327 328 328 334 336 338 338 337 336 335 335 335 336 337
301 301 301 301 302 302 304 304 306 306 307 306 307 307 307 308 311 313 319 327 327 328 335 336 336 336 335 331 333 333 335 335
298 297 297 296 298 299 301 303 303 303 303 302 302 303 304 305 306 308 310 312 316 325 334 334 334 334 334 331 329 332 327 333
295 295 294 294 295 295 296 296 296 298 298 299 300 301 302 302 304 305 306 308 311 314 320 333 331 328 331 331 328 327 327 326
294 293 293 292 292 293 293 293 294 295 296 297 298 300 299 300 301 302 303 304 307 311 315 319 332 328 330 330 328 327 326 324
292 292 291 290 291 291 291 291 292 292 293 294 295 296 297 298 298 298 299 301 303 306 311 317 326 332 332 330 328 327 326 325
291 290 290 289 289 289 289 289 290 290 291 292 293 294 296 296 296 297 298 300 301 302 304 307 311 325 330 329 327 327 327 326
289 289 289 289 288 289 289 289 289 290 291 291 292 293 294 295 296 297 298 299 300 301 303 306 309 313 328 329 328 328 328 327